Torna al catalogo

NIMBUS 2 DEB

AttivoLEO
NORAD 28612·DEBRIS·🇺🇸 United States

Lanciato May 15, 1966 da Vandenberg Space Force Base

Loading…

Prossimi Passaggi (prossime 24 ore)

TLE

AggiornatoSource: Space-Track

Epoca: Sep 14, 2026, 11:41 UTC

1 28612U 66040AB  26257.48733461  .00002136  00000-0  21598-2 0  9992
2 28612 100.3928 151.0707 0034172 170.1720   6.0823 13.78258273712612

Traccia NIMBUS 2 DEB in tempo reale con AllMySat

Download on the App Store